User: anonymous   Login
Location: ??????
(55.6130°N, 37.7882°E)
Time: 18:29:38
(UTC+00:00)
Language:

CRYOSAT 2 - Orbit

View from above orbital plane
View from above orbital plane
View from above satellite
View from above satellite

Ground track
Ground track

The orbit data is extracted from the following two-line orbital elements,

1 36508U 10013A   24165.70378503  .00000377  00000-0  92918-4 0  9998
2 36508  92.0344 100.1787 0001278   1.2358 358.8853 14.51906877751659
Epoch (UTC): 13 June 2024 16:53:27
Eccentricity: 0.0001278
inclination: 92.0344°
perigee height: 718 km
apogee height: 720 km
right ascension of ascending node: 100.1787°
argument of perigee: 1.2358°
revolutions per day: 14.51906877
mean anomaly at epoch: 358.8853°
orbit number at epoch: 75165

The dashed part of the orbit path shows where the satellite is in the earth's shadow,  

DLR